When you browse on this site, cookies collect data to enhance your experience and personalize the content and advertising you see.
Visit our Privacy Policy to learn more. By continuing to use the site, you agree to this use of cookies and data.
  • In Denmark
  • List of Countries
  • For 7 days
  • Water Temperature
  • Satellite Maps
  • Weather Map
  • Weather Widgets
  • user-avatar
    Login

    Hourly Weather Cyrchla

    Today, 18 February, Monday

    Time Temperature Precipitation Wind Pressure Humidity
    00:00 +2°C° 0 mm 1 mps 699 mmHg 74%
    01:00 +1°C° 0 mm 1 mps 699 mmHg 72%
    02:00 +1°C° 0 mm 1 mps 698 mmHg 70%
    03:00 +1°C° 0 mm 1 mps 698 mmHg 68%
    04:00 +1°C° 0 mm 1 mps 698 mmHg 66%
    05:00 +1°C° 0 mm 1 mps 698 mmHg 64%
    06:00 +1°C° 0 mm 1 mps 698 mmHg 63%
    07:00 +1°C° 0 mm 1 mps 698 mmHg 61%
    08:00 +3°C° 0 mm 1 mps 698 mmHg 61%
    09:00 +5°C° 0 mm 1 mps 699 mmHg 62%
    10:00 +7°C° 0 mm 1 mps 699 mmHg 62%
    11:00 +8°C° 0 mm 1 mps 699 mmHg 61%
    12:00 +9°C° 0 mm 1 mps 699 mmHg 60%
    13:00 +10°C° 0 mm 0 mps 699 mmHg 59%
    14:00 +9°C° 0 mm 1 mps 699 mmHg 64%
    15:00 +8°C° 0 mm 1 mps 698 mmHg 69%
    16:00 +7°C° 0 mm 1 mps 698 mmHg 74%
    17:00 +6°C° 0 mm 1 mps 697 mmHg 77%
    18:00 +4°C° 0 mm 1 mps 697 mmHg 79%
    19:00 +2°C° 0 mm 2 mps 697 mmHg 82%
    20:00 +1°C° 0 mm 2 mps 696 mmHg 80%
    21:00 +1°C° 0 mm 2 mps 696 mmHg 78%
    22:00 +1°C° 0 mm 2 mps 696 mmHg 76%
    23:00 -1°C° 0 mm 2 mps 696 mmHg 74%

    Tomorrow, 19 February, Tuesday

    Time Temperature Precipitation Wind Pressure Humidity
    00:00 -1°C° 0 mm 2 mps 696 mmHg 72%
    01:00 -1°C° 0 mm 2 mps 696 mmHg 70%
    02:00 -1°C° 0 mm 2 mps 696 mmHg 70%
    03:00 -1°C° 0 mm 2 mps 695 mmHg 70%
    04:00 -2°C° 0 mm 2 mps 695 mmHg 70%
    05:00 -2°C° 0 mm 2 mps 695 mmHg 71%
    06:00 -2°C° 0 mm 2 mps 695 mmHg 72%
    07:00 -2°C° 0 mm 2 mps 695 mmHg 73%
    08:00 +1°C° 0 mm 2 mps 695 mmHg 70%
    09:00 +3°C° 0 mm 2 mps 695 mmHg 68%
    10:00 +6°C° 0 mm 2 mps 695 mmHg 65%
    11:00 +7°C° 0 mm 2 mps 695 mmHg 63%
    12:00 +8°C° 0 mm 2 mps 695 mmHg 61%
    13:00 +9°C° 0 mm 2 mps 695 mmHg 58%
    14:00 +8°C° 0 mm 2 mps 695 mmHg 63%
    15:00 +8°C° 0 mm 1 mps 694 mmHg 68%
    16:00 +7°C° 0 mm 1 mps 694 mmHg 73%
    17:00 +5°C° 0 mm 1 mps 694 mmHg 77%
    18:00 +4°C° 0 mm 1 mps 693 mmHg 81%
    19:00 +1°C° 0 mm 2 mps 693 mmHg 85%
    20:00 +1°C° 0 mm 2 mps 693 mmHg 85%
    21:00 -1°C° 0 mm 2 mps 693 mmHg 84%
    22:00 -1°C° 0 mm 2 mps 693 mmHg 83%
    23:00 -1°C° 0 mm 2 mps 693 mmHg 83%

    Day after tomorrow, 20 February, Wednesday

    Time Temperature Precipitation Wind Pressure Humidity
    00:00 +1°C° 0 mm 2 mps 694 mmHg 82%
    01:00 +1°C° 0 mm 2 mps 694 mmHg 81%
    02:00 +1°C° 0.2 mm 2 mps 694 mmHg 85%
    03:00 +1°C° 0.2 mm 2 mps 694 mmHg 88%
    04:00 +1°C° 0.2 mm 2 mps 694 mmHg 92%
    05:00 +1°C° 0 mm 2 mps 694 mmHg 92%
    06:00 -1°C° 0 mm 2 mps 694 mmHg 92%
    07:00 -2°C° 0 mm 2 mps 694 mmHg 93%
    08:00 +1°C° 0 mm 2 mps 695 mmHg 84%
    09:00 +1°C° 0 mm 3 mps 695 mmHg 76%
    10:00 +3°C° 0 mm 4 mps 696 mmHg 68%
    11:00 +3°C° 0.1 mm 4 mps 696 mmHg 67%
    12:00 +3°C° 0.1 mm 4 mps 696 mmHg 67%
    13:00 +3°C° 0.1 mm 4 mps 696 mmHg 66%
    14:00 +3°C° 0.1 mm 4 mps 696 mmHg 69%
    15:00 +2°C° 0.1 mm 3 mps 696 mmHg 72%
    16:00 +2°C° 0.1 mm 3 mps 696 mmHg 75%
    17:00 +1°C° 0 mm 3 mps 697 mmHg 79%
    18:00 +1°C° 0 mm 2 mps 697 mmHg 83%
    19:00 -1°C° 0 mm 2 mps 697 mmHg 88%
    20:00 -1°C° 0 mm 2 mps 697 mmHg 88%
    21:00 -2°C° 0 mm 2 mps 697 mmHg 89%
    22:00 -2°C° 0 mm 2 mps 697 mmHg 89%
    23:00 -2°C° 0 mm 2 mps 698 mmHg 89%

    21 February, Thursday

    Time Temperature Precipitation Wind Pressure Humidity
    00:00 -2°C° 0 mm 2 mps 698 mmHg 88%
    01:00 -2°C° 0 mm 2 mps 698 mmHg 87%
    02:00 -2°C° 0 mm 2 mps 698 mmHg 87%
    03:00 -2°C° 0 mm 2 mps 697 mmHg 87%
    04:00 -2°C° 0 mm 2 mps 697 mmHg 86%
    05:00 -2°C° 0 mm 2 mps 697 mmHg 86%
    06:00 -2°C° 0 mm 2 mps 698 mmHg 85%
    07:00 -2°C° 0 mm 2 mps 698 mmHg 84%
    08:00 +1°C° 0.1 mm 2 mps 698 mmHg 82%
    09:00 +2°C° 0.1 mm 2 mps 698 mmHg 79%
    10:00 +3°C° 0.1 mm 2 mps 698 mmHg 76%
    11:00 +3°C° 0.2 mm 2 mps 698 mmHg 77%
    12:00 +3°C° 0.2 mm 2 mps 698 mmHg 78%
    13:00 +4°C° 0.2 mm 2 mps 698 mmHg 79%
    14:00 +4°C° 0.8 mm 1 mps 698 mmHg 83%
    15:00 +4°C° 0.8 mm 1 mps 697 mmHg 86%
    16:00 +3°C° 0.8 mm 1 mps 697 mmHg 89%
    17:00 +3°C° 0.5 mm 1 mps 697 mmHg 90%
    18:00 +3°C° 0.5 mm 1 mps 697 mmHg 91%
    19:00 +2°C° 0.5 mm 2 mps 697 mmHg 91%
    20:00 +2°C° 0.3 mm 2 mps 698 mmHg 92%
    21:00 +1°C° 0.3 mm 2 mps 698 mmHg 92%
    22:00 +1°C° 0.3 mm 2 mps 698 mmHg 93%
    23:00 +1°C° 0.2 mm 2 mps 698 mmHg 94%

    22 February, Friday

    Time Temperature Precipitation Wind Pressure Humidity
    00:00 +1°C° 0.2 mm 2 mps 699 mmHg 95%
    01:00 +2°C° 0.2 mm 2 mps 699 mmHg 96%
    02:00 +2°C° 0.3 mm 2 mps 699 mmHg 96%
    03:00 +2°C° 0.3 mm 2 mps 699 mmHg 97%
    04:00 +2°C° 0.3 mm 2 mps 699 mmHg 97%
    05:00 +2°C° 0.5 mm 2 mps 700 mmHg 97%
    06:00 +2°C° 0.5 mm 2 mps 701 mmHg 97%
    07:00 +2°C° 0.5 mm 2 mps 701 mmHg 97%
    08:00 0°C° 0.4 mm 3 mps 702 mmHg 97%
    09:00 0°C° 0.4 mm 3 mps 702 mmHg 96%
    10:00 0°C° 0.4 mm 3 mps 703 mmHg 96%
    11:00 0°C° 0.1 mm 3 mps 703 mmHg 90%
    12:00 0°C° 0.1 mm 3 mps 704 mmHg 84%
    13:00 0°C° 0.1 mm 3 mps 704 mmHg 78%
    14:00 -1°C° 0 mm 3 mps 705 mmHg 74%
    15:00 -1°C° 0 mm 3 mps 705 mmHg 70%
    16:00 -1°C° 0 mm 3 mps 705 mmHg 67%
    17:00 -3°C° 0 mm 2 mps 706 mmHg 71%
    18:00 -4°C° 0 mm 2 mps 706 mmHg 75%
    19:00 -3°C° 0 mm 1 mps 707 mmHg 79%
    20:00 -3°C° 0 mm 1 mps 707 mmHg 79%
    21:00 -4°C° 0 mm 1 mps 708 mmHg 80%
    22:00 -4°C° 0 mm 1 mps 708 mmHg 80%
    23:00 -4°C° 0 mm 1 mps 708 mmHg 79%

    23 February, Saturday

    Time Temperature Precipitation Wind Pressure Humidity
    00:00 -5°C° 0 mm 0 mps 709 mmHg 78%
    01:00 -5°C° 0 mm 0 mps 709 mmHg 77%
    02:00 -5°C° 0 mm 0 mps 709 mmHg 74%
    03:00 -5°C° 0 mm 0 mps 709 mmHg 71%
    04:00 -5°C° 0 mm 0 mps 709 mmHg 67%
    05:00 -5°C° 0 mm 0 mps 709 mmHg 63%
    06:00 -4°C° 0 mm 1 mps 709 mmHg 58%
    07:00 -3°C° 0 mm 1 mps 709 mmHg 54%
    08:00 -2°C° 0 mm 0 mps 710 mmHg 47%
    09:00 0°C° 0 mm 0 mps 710 mmHg 40%
    10:00 +2°C° 0 mm 0 mps 710 mmHg 33%
    11:00 +4°C° 0 mm 1 mps 710 mmHg 34%
    12:00 +5°C° 0 mm 1 mps 709 mmHg 36%
    13:00 +6°C° 0 mm 1 mps 709 mmHg 37%
    14:00 +5°C° 0 mm 1 mps 709 mmHg 45%
    15:00 +4°C° 0 mm 1 mps 708 mmHg 54%
    16:00 +4°C° 0 mm 1 mps 708 mmHg 62%
    17:00 +3°C° 0 mm 1 mps 707 mmHg 66%
    18:00 +1°C° 0 mm 1 mps 707 mmHg 70%
    19:00 -2°C° 0 mm 2 mps 707 mmHg 74%
    20:00 -2°C° 0 mm 2 mps 706 mmHg 74%
    21:00 -2°C° 0 mm 2 mps 706 mmHg 74%
    22:00 -2°C° 0 mm 2 mps 706 mmHg 74%
    23:00 -2°C° 0 mm 2 mps 706 mmHg 76%
    Show more